Regional Weather Roundup
Issued by NWS

Home | Current Version | Previous Version | Text Only | Print | Product List | Glossary Off
Versions: 1 2 3 4 5 6 7 8 9 10 11 12 13 14 15 16 17 18 19 20 21 22 23 24 25 26 27 28 29 30 31 32 33 34 35 36 37 38 39 40 41 42 43 44 45 46 47 48 49 50

189
ASUS44 KJAN 300503
RWRMS

MISSISSIPPI HOURLY WEATHER ROUNDUP
NATIONAL WEATHER SERVICE JACKSON MS
1200 AM CDT WED JUL 30 2014

NOTE: "FAIR: INDICATES FEW OR NO CLOUDS BELOW 12,000 FEET WITH NO
SIGNIFICANT WEATHER AND/OR OBSTRUCTIONS TO VISIBILITY.

MSZ001>002-007>008-010>013-018>021-025>028-034>036-300600-
NORTHWEST MISSISSIPPI

CITY           SKY/WX    TMP DP  RH WIND       PRES   REMARKS
CLARKSDALE     FAIR      64  61  88 CALM      30.11S
CLEVELAND      FAIR      65  62  91 CALM      30.09S
GREENWOOD      CLEAR     63  60  90 CALM      30.10S
GREENVILLE     PTCLDY    65  62  90 CALM      30.09S
GRENADA        FAIR      61  59  94 CALM      30.10F
OLIVE BRANCH   CLEAR     63  63 100 CALM      30.12S
OXFORD         FAIR      59  57  94 CALM      30.13R
TUNICA         CLEAR     63  59  88 CALM      30.11S
$$

MSZ003>006-009-014>017-022>024-029>033-037>039-300600-
NORTHEAST MISSISSIPPI

CITY           SKY/WX    TMP DP  RH WIND       PRES   REMARKS
BELMONT        FAIR      60  57  91 CALM      30.11R
COLUMBUS AFB   CLEAR     61  58  89 NW1       30.09S
CORINTH        FAIR      59  57  94 CALM      30.11R
GOLDN TRIANGLE CLEAR     63  55  77 NW5       30.10S
STARKVILLE     FAIR      59  57  94 CALM      30.10R
TUPELO         CLEAR     63  57  81 CALM      30.10S
$$

MSZ040-058-300600-
CENTRAL MISSISSIPPI

CITY           SKY/WX    TMP DP  RH WIND       PRES   REMARKS
JACKSON INTL   CLEAR     72  60  66 N6        30.09R
JACKSON HAWKNS CLEAR     71  58  63 CALM      30.09S
MERIDIAN KEY   CLEAR     64  57  78 NW6       30.08R
MERIDIAN NAS   CLEAR     67  56  67 N5        30.08S
RAYMOND        FAIR      66  63  88 N3        30.09S
VICKSBURG      CLEAR     70  61  73 NE6       30.08S
$$

MSZ059>079-300600-
SOUTH MISSISSIPPI

CITY           SKY/WX    TMP DP  RH WIND       PRES   REMARKS
BROOKHAVEN     FAIR      68  63  83 CALM      30.10R
COLUMBIA       FAIR      70  63  78 N6        30.06S
HATTIESBURG    CLEAR     74  64  71 CALM      30.07R
MCCOMB         CLEAR     73  63  70 N5        30.08R
NATCHEZ        CLEAR     72  64  78 NE3       30.09R
PINE BELT      CLEAR     70  59  68 N7        30.09R
$$

MSZ080>082-300600-
COASTAL MISSISSIPPI

CITY           SKY/WX    TMP DP  RH WIND       PRES   REMARKS
BILOXI         CLEAR     77  67  71 NE7       30.03R
PASCAGOULA     MOCLDY    75  68  78 NE5       30.03R
GULFPORT       PTCLDY    81  66  60 N7        30.03R
$$



USA.gov is the U.S. government's official web portal to all federal, state and local government web resources and services.